Simultaneous Nadir Overpasses (SNOs) Predictions

Prediction of SNOs between NOAA-15 and METOP-C Satellite Orbit:

Table of predicted SNOs for the next 14.0 days since TLE Epoch: 12/28/2019
Index Date (NOAA-15) Time (NOAA-15) Lat,Lon (NOAA-15) SZA (NOAA-15 ) Date (METOP-C) Time (METOP-C) Lat,Lon (METOP-C) SZA (METOP-C ) Distance(km) Time Diff (sec)
1 01/07/2020 14:36:18 -80.88, 175.48 75.38 01/07/2020 14:35:04 -80.87, 175.62 75.41 2.90 74
2 01/07/2020 15:26:45 80.87, -16.96 104.62 01/07/2020 15:25:44 80.87, -17.06 104.59 1.81 61
3 01/07/2020 16:17:20 -80.87, 150.44 75.38 01/07/2020 16:16:24 -80.88, 150.55 75.39 2.17 56
4 01/07/2020 17:07:47 80.86, -42.01 104.62 01/07/2020 17:07:04 80.88, -42.13 104.61 2.81 43
5 01/07/2020 17:58:23 -80.88, 125.04 75.40 01/07/2020 17:57:45 -80.87, 125.12 75.41 1.52 38
6 01/07/2020 18:48:50 80.87, -67.41 104.61 01/07/2020 18:48:25 80.87, -67.55 104.59 2.54 25
7 01/07/2020 19:39:26 -80.88, 99.64 75.41 01/07/2020 19:39:06 -80.87, 99.70 75.43 1.91 20
8 01/07/2020 20:29:53 80.88, -92.82 104.59 01/07/2020 20:29:46 80.87, -92.98 104.57 2.99 7
9 01/07/2020 21:20:28 -80.87, 74.59 75.42 01/07/2020 21:20:26 -80.88, 74.63 75.40 1.29 2
10 01/07/2020 22:10:56 80.88,-118.22 104.58 01/07/2020 22:11:06 80.88,-118.05 104.59 3.02 10
11 01/07/2020 23:01:31 -80.88, 49.19 75.43 01/07/2020 23:01:47 -80.88, 49.20 75.43 0.27 16
12 01/07/2020 23:51:59 80.89,-143.63 104.56 01/07/2020 23:52:27 80.88,-143.48 104.57 2.95 28
13 01/08/2020 00:42:34 -80.89, 23.79 75.45 01/08/2020 00:43:08 -80.87, 23.77 75.45 1.48 34
14 01/08/2020 01:33:01 80.88,-168.67 104.56 01/08/2020 01:33:47 80.89,-168.55 104.60 2.52 46
15 01/08/2020 02:23:36 -80.88, -1.26 75.45 01/08/2020 02:24:28 -80.89, -1.29 75.42 1.38 52
16 01/08/2020 03:14:04 80.89, 165.92 104.55 01/08/2020 03:15:08 80.89, 166.02 104.58 1.75 64




NCC Satellite Simultaneous Nadir Overpasses (SNOs) Prediction Service
